Temperature
17 17 17 16 16 16 16 16 16 15 15 15 15 14 14 14 14 14 14 14 13 13 13 12 12 12 12 12 12 12 12 12 12 11 11 11 11 11 12 12 12 12 12
16 16 16 16 16 16 15 15 15 15 15 15 14 14 14 14 14 14 14 13 13 13 13 12 12 12 12 12 12 12 12 12 11 11 11 11 11 11 11 11 11 11 11
16 16 16 16 15 15 15 15 15 14 14 14 14 14 14 14 14 14 14 13 13 13 13 12 12 12 12 12 12 12 11 11 11 11 11 11 11 11 11 11 11 11 11
15 15 15 15 15 15 14 14 14 14 14 14 14 14 13 13 14 14 14 13 13 13 13 13 12 12 12 12 11 11 11 11 11 11 11 11 10 10 10 10 10 11 11
15 15 15 14 14 14 14 14 14 14 14 13 13 13 13 13 14 14 14 14 13 13 13 13 12 12 11 11 11 11 11 11 11 11 10 10 10 10 10 10 10 10 10
14 14 14 14 14 14 14 13 13 13 13 13 13 13 13 14 14 14 14 13 13 13 13 12 12 11 11 11 11 11 10 10 10 10 10 10 10 10 10 10 10 10 10
14 14 14 14 13 13 13 13 13 13 13 13 13 13 14 14 14 14 13 13 13 12 12 12 11 11 11 11 10 10 10 10 10 10 10 10 10 10 10 10 10 10 10
14 14 14 14 13 13 13 13 13 13 13 13 13 12 13 13 13 13 12 12 12 12 12 11 11 11 10 10 10 10 10 10 9 9 9 9 9 9 9 9 9 9 9
14 14 14 14 13 13 13 13 13 13 13 13 12 12 12 12 11 11 11 11 11 11 11 10 10 10 10 10 10 9 9 9 9 9 9 9 9 9 9 9 9 9 9
14 14 14 14 13 13 13 13 13 13 13 13 12 12 11 11 10 10 10 10 10 10 10 10 10 9 9 9 9 9 9 9 8 8 8 8 8 8 8 8 8 8 9
14 14 14 14 13 13 13 13 13 13 13 12 12 12 11 11 10 9 9 10 9 9 9 9 9 9 9 9 8 8 8 8 8 8 8 8 8 8 8 8 8 8 8
14 14 14 13 13 13 13 13 13 13 12 12 12 11 11 10 10 9 8 8 8 8 8 8 8 8 8 8 8 8 8 7 7 7 7 7 7 7 7 7 7 8 8
13 13 13 13 13 13 13 13 12 12 12 11 11 11 10 10 9 8 7 7 7 7 7 8 8 7 7 7 7 7 7 7 7 6 6 6 6 6 6 7 7 7 7
13 13 13 13 13 12 12 12 12 12 11 11 11 10 10 9 8 8 7 6 6 6 6 6 7 7 7 7 6 6 6 6 6 6 6 6 6 6 6 6 6 6 7
13 12 12 12 12 12 12 12 11 11 11 10 10 9 9 8 8 7 7 6 5 5 5 6 6 6 6 6 5 5 5 5 5 5 5 5 5 5 5 5 6 6 6
12 12 12 12 12 11 11 11 11 10 10 10 9 8 8 7 7 7 6 6 5 5 5 5 5 5 5 5 5 5 5 4 4 4 4 4 4 4 4 5 5 5 6
11 11 11 11 11 11 11 10 10 10 9 9 8 7 7 7 6 6 5 5 5 4 4 4 4 4 4 4 4 4 4 4 3 3 3 3 3 4 4 4 4 5 5
11 11 10 10 10 10 10 10 9 9 8 8 7 7 6 6 5 5 4 4 4 4 3 3 3 3 3 3 3 3 3 3 3 3 3 3 3 3 3 3 3 4 4
10 10 10 9 9 9 9 9 8 8 8 7 6 6 5 5 4 4 3 3 3 3 3 3 3 3 3 3 3 3 3 2 2 2 2 2 2 2 2 3 3 3 3
9 9 9 9 9 8 8 8 8 7 7 6 6 5 4 3 3 3 3 3 2 2 2 2 2 2 3 2 2 2 2 2 2 2 2 2 2 2 2 2 2 2 3
8 8 8 8 8 8 7 7 7 6 6 5 4 3 3 2 2 2 2 2 2 2 2 2 2 2 2 2 2 2 1 1 1 1 1 1 1 1 1 1 1 2 2
8 7 7 7 7 7 6 6 6 5 5 4 3 2 2 2 2 1 2 2 1 2 2 1 1 1 1 1 1 1 1 1 1 1 1 1 1 1 1 1 1 1 1
7 7 7 6 6 6 5 5 5 4 3 3 2 2 1 1 1 1 1 1 1 1 1 1 1 1 1 1 1 1 1 0 0 0 0 0 0 0 0 0 0 0 1
6 6 6 6 5 5 5 4 4 3 3 2 1 1 1 1 1 1 1 1 1 1 1 1 1 1 1 1 0 0 0 0 -0 -0 -0 -0 -0 -0 -0 -0 -0 -0 -0
5 5 5 5 5 4 4 3 3 2 2 1 1 1 0 0 0 0 0 0 0 0 0 0 0 0 0 0 0 -0 -0 -0 -0 -0 -0 -1 -0 -1 -1 -1 -1 -1 -1
5 4 4 4 4 4 3 2 2 1 1 1 0 0 0 -0 -0 -0 -0 -0 -0 -0 -0 0 -0 -0 -0 -0 -0 -0 -0 -1 -1 -1 -1 -1 -1 -1 -1 -1 -1 -1 -1
Wind_Speed
5 6 5 6 5 5 4 3 3 2 3 4 4 4 5 6 7 8 9 10 10 10 11 11 11 10 9 9 8 7 7 7 6 6 6 5 4 3 1 1 1 2 3
8 6 5 6 6 7 6 5 4 3 3 3 4 5 6 7 7 8 10 10 11 11 11 11 11 11 10 9 8 7 7 8 8 8 7 7 6 6 5 4 2 1 1
11 8 5 5 7 9 7 5 4 3 2 2 3 4 5 6 7 9 10 10 11 11 10 10 11 11 9 8 7 6 5 5 7 9 9 9 9 8 8 7 6 4 3
13 10 5 5 8 8 6 3 3 2 2 3 3 3 3 5 7 8 9 10 9 10 10 9 9 9 8 6 5 4 3 4 5 7 10 11 10 10 10 9 9 8 6
14 11 7 6 8 6 4 3 3 3 2 3 3 4 4 4 5 6 6 8 8 8 9 8 7 6 5 3 3 3 3 3 4 5 7 10 12 12 11 11 11 10 9
14 12 7 7 7 4 3 3 3 2 2 2 3 4 4 4 3 3 4 5 5 5 5 5 3 2 1 1 1 2 4 3 4 4 5 6 9 11 13 12 12 13 12
13 10 6 5 5 5 5 5 3 3 2 1 1 3 3 3 2 2 2 2 3 4 3 2 1 1 2 2 2 2 3 3 3 3 3 3 4 7 9 11 12 13 14
11 10 7 6 5 5 5 4 3 2 1 1 1 1 4 4 3 2 3 3 3 5 5 5 4 3 2 3 3 3 3 3 4 3 2 3 4 5 6 9 10 11 12
9 8 7 5 4 5 4 4 4 4 2 1 1 2 2 3 3 2 3 3 4 4 4 5 6 4 3 3 3 4 4 4 4 4 3 3 3 5 6 6 8 9 11
6 8 7 6 5 4 4 4 3 3 3 2 1 2 3 3 2 3 2 2 3 4 4 4 5 6 5 4 4 4 4 5 5 5 5 5 5 6 5 6 6 8 9
4 6 6 5 5 4 4 4 3 3 2 3 3 2 2 2 3 4 4 3 2 2 3 3 3 4 5 5 5 5 5 6 5 6 6 7 8 8 8 7 7 7 8
3 4 5 4 4 4 4 4 3 3 2 2 2 2 2 2 3 3 5 3 3 1 1 2 2 3 4 5 6 6 7 7 7 7 7 8 8 8 8 8 7 7 7
3 4 4 4 4 4 4 4 3 2 2 2 2 2 2 3 2 2 3 4 3 1 1 1 1 2 3 4 5 6 7 7 7 7 8 8 9 9 9 8 8 7 6
5 6 6 5 5 5 5 4 3 2 1 1 1 2 2 2 2 2 2 2 3 2 2 2 1 2 3 4 5 6 7 8 8 8 9 10 10 10 10 9 9 8 7
6 7 7 7 6 6 5 4 3 2 1 1 1 2 2 1 1 1 2 2 3 3 3 3 2 1 2 4 5 7 7 7 8 8 9 10 10 10 10 10 10 9 8
7 8 7 7 6 5 5 5 3 2 2 1 1 1 1 1 0 1 1 2 3 3 3 1 1 1 2 3 5 7 7 7 8 8 9 10 10 10 11 11 11 11 9
7 8 7 7 6 5 5 4 3 2 1 1 1 1 1 1 1 0 0 1 2 2 4 1 1 1 2 2 3 6 7 8 8 8 8 9 10 10 11 12 12 12 10
7 7 7 7 6 5 4 4 3 2 2 1 1 1 1 1 1 0 0 1 1 2 2 2 2 1 1 2 2 3 5 6 8 8 8 8 9 9 10 11 12 13 13
7 7 7 6 5 5 4 4 3 3 2 1 1 2 2 2 1 1 1 1 1 1 1 2 2 1 1 1 2 2 3 4 5 7 8 8 8 8 9 10 11 11 12
7 7 6 6 5 5 4 4 3 3 2 1 1 1 1 2 2 2 1 1 1 1 1 1 1 1 1 1 2 2 1 2 2 5 6 7 8 9 9 10 10 10 10
6 6 6 5 5 4 4 4 4 3 3 2 1 1 1 2 3 2 1 1 1 1 1 1 1 2 2 2 2 1 1 1 2 3 2 4 5 7 9 9 9 9 8
6 6 6 6 5 3 5 6 5 3 3 3 2 1 1 1 1 2 2 1 1 2 2 2 2 2 2 2 2 2 2 2 0 2 2 2 3 2 5 7 7 7 7
6 6 5 5 5 4 5 5 5 4 4 3 3 3 1 2 3 3 4 5 5 4 1 3 3 3 3 4 4 3 2 2 1 0 1 1 2 1 3 6 6 5 6
5 5 5 5 4 4 6 6 5 4 3 3 3 3 3 3 3 3 3 2 3 3 3 2 2 2 2 3 4 4 3 3 1 1 1 1 1 1 2 5 6 5 5
5 5 5 6 6 5 6 7 6 4 3 3 3 3 4 4 5 5 4 3 1 2 3 5 5 5 5 6 7 4 3 2 1 1 1 1 0 1 1 2 4 6 5
6 6 5 6 6 6 7 8 8 4 4 3 3 3 6 6 7 7 5 5 4 2 1 3 4 5 5 4 4 3 4 3 2 1 0 1 1 1 1 1 2 4 4
Wind_Direction
173 178 185 192 200 202 202 210 226 254 281 293 292 287 287 288 288 285 285 287 282 275 272 273 272 269 265 259 253 248 239 231 230 226 224 221 219 218 211 179 85 73 66
183 182 188 197 206 210 212 215 226 239 263 279 285 280 274 280 282 281 281 284 282 277 272 272 273 274 273 271 264 254 246 237 234 233 230 225 222 223 221 218 209 186 122
193 190 189 200 212 212 210 212 223 227 249 261 273 276 272 272 274 277 280 280 280 279 274 272 274 277 276 273 271 265 263 252 241 235 231 228 223 222 222 220 217 211 199
199 192 192 205 209 201 194 189 191 210 240 251 264 271 269 275 276 277 279 278 277 276 277 274 273 274 276 275 278 283 281 274 264 251 238 231 226 223 221 219 218 216 212
199 192 197 203 195 184 184 184 183 190 224 248 260 268 269 267 273 282 282 283 280 276 275 277 273 267 264 268 286 308 310 301 287 275 259 242 234 228 224 223 220 217 215
196 192 194 192 180 168 177 178 185 189 211 238 267 278 275 276 282 289 294 300 298 292 281 273 273 277 268 238 298 330 336 329 315 297 278 263 247 238 232 228 225 220 217
192 189 187 179 174 180 186 179 173 190 218 192 291 310 307 305 319 326 339 351 358 4 16 11 13 56 56 58 34 6 351 343 332 323 297 279 266 253 242 237 233 226 221
188 189 184 184 176 175 175 176 171 168 193 153 159 322 326 336 351 12 22 27 21 32 35 34 41 48 58 57 45 33 13 1 352 337 318 299 281 269 260 248 240 233 227
187 183 179 171 170 174 180 179 172 173 194 190 178 185 232 271 307 328 25 30 25 31 31 33 37 34 41 46 43 35 32 27 13 4 358 345 320 291 273 267 251 242 234
177 174 168 166 167 169 168 166 160 164 170 201 212 220 223 218 257 307 325 11 30 34 26 28 35 34 41 49 49 46 48 44 34 20 18 15 6 353 330 291 276 257 248
163 162 160 155 157 159 153 146 146 155 171 191 199 199 225 234 226 240 278 296 339 24 30 29 40 39 42 50 51 52 57 53 44 32 29 24 14 1 346 331 310 282 262
144 142 134 133 137 141 139 138 134 143 158 192 208 203 209 219 222 228 254 263 264 254 35 35 45 44 47 53 56 57 60 59 49 35 29 24 16 7 356 345 324 305 278
162 151 135 130 126 121 118 120 121 127 143 184 211 222 226 232 225 227 251 269 263 247 201 56 35 49 61 60 57 57 58 61 54 45 38 32 27 19 11 3 358 345 319
156 143 134 126 120 115 111 106 107 113 135 170 206 213 227 238 231 226 234 257 274 252 219 210 76 58 67 66 62 65 63 64 60 54 46 39 36 29 21 14 8 4 355
137 136 133 127 123 116 113 113 112 117 130 167 193 211 216 221 230 240 243 235 248 263 249 194 172 98 85 79 69 70 66 67 65 62 54 49 39 33 27 24 21 16 12
135 135 129 125 121 115 114 112 114 129 149 171 179 193 199 192 199 246 251 252 244 252 258 152 155 136 108 99 79 76 71 67 64 64 59 50 42 37 33 30 26 23 21
134 134 132 128 124 118 113 113 122 131 145 156 152 176 178 156 168 244 272 261 257 252 256 191 116 116 118 110 85 79 72 62 55 60 58 52 45 41 40 37 34 31 32
130 130 129 126 125 121 117 121 127 124 142 167 180 170 182 159 167 213 255 261 264 265 242 218 171 146 129 125 107 86 67 61 53 53 56 54 48 40 40 40 40 39 40
127 125 126 127 127 126 124 128 136 134 134 151 184 196 194 173 193 207 228 256 273 275 253 201 171 132 113 111 100 80 69 49 49 44 49 48 46 43 44 45 45 45 45
134 134 131 132 134 134 134 136 134 130 126 127 148 170 176 184 200 202 214 255 270 264 225 163 149 135 125 110 114 117 96 46 34 28 38 41 43 48 46 46 47 47 51
138 137 133 131 133 137 149 151 149 150 154 151 140 136 162 178 194 188 185 213 208 203 180 171 160 145 154 148 155 134 136 79 48 26 16 24 29 39 36 33 39 47 55
138 138 144 147 152 161 172 173 164 161 168 172 176 160 120 97 105 104 95 108 152 179 195 188 186 188 185 170 140 138 128 118 220 17 34 18 25 31 20 18 30 46 57
152 152 158 160 168 185 193 191 181 164 171 182 188 183 172 138 102 86 76 58 43 40 132 180 190 199 184 180 157 143 141 146 170 17 45 26 15 21 9 12 26 56 67
163 167 172 172 176 202 208 203 188 154 162 184 196 193 186 174 168 152 129 87 47 25 38 83 168 182 172 155 153 149 141 116 90 40 68 122 6 358 352 9 33 56 67
172 174 174 178 186 207 213 206 177 148 170 196 204 199 196 198 210 189 158 150 108 11 53 93 106 115 127 141 138 117 119 111 143 171 43 120 52 344 341 351 22 38 56
182 176 182 187 191 203 215 212 190 164 183 203 212 218 220 215 220 206 172 174 192 209 120 79 74 69 67 91 123 134 145 138 154 208 191 120 91 43 16 358 11 22 39
Height
1548 1550 1552 1554 1555 1556 1558 1559 1560 1561 1561 1562 1563 1563 1563 1563 1563 1562 1562 1562 1561 1561 1560 1560 1559 1559 1558 1557 1556 1556 1555 1554 1554 1553 1553 1552 1552 1551 1551 1550 1550 1549 1549
1547 1549 1550 1552 1554 1555 1556 1557 1558 1559 1560 1560 1561 1561 1561 1561 1561 1560 1560 1559 1559 1558 1558 1557 1557 1556 1556 1555 1554 1553 1553 1552 1552 1551 1551 1551 1550 1550 1550 1549 1549 1549 1548
1545 1547 1548 1550 1552 1553 1554 1555 1556 1557 1558 1558 1559 1559 1559 1558 1558 1558 1557 1556 1556 1555 1554 1554 1553 1553 1553 1552 1552 1551 1550 1550 1549 1549 1549 1548 1548 1548 1548 1548 1548 1548 1547
1543 1545 1546 1548 1549 1551 1552 1553 1554 1555 1555 1556 1556 1556 1556 1555 1555 1554 1554 1553 1552 1551 1551 1550 1550 1550 1549 1549 1549 1548 1547 1547 1546 1546 1546 1546 1546 1546 1546 1546 1546 1546 1546
1540 1542 1544 1546 1547 1548 1549 1551 1552 1552 1553 1553 1553 1553 1553 1552 1552 1551 1550 1549 1548 1547 1547 1547 1546 1546 1546 1546 1546 1545 1544 1544 1543 1543 1542 1542 1543 1543 1543 1543 1544 1544 1544
1537 1539 1541 1543 1544 1545 1547 1548 1549 1550 1550 1550 1550 1550 1549 1549 1548 1547 1546 1545 1544 1544 1543 1543 1543 1543 1543 1543 1543 1543 1542 1541 1540 1540 1539 1539 1539 1539 1540 1540 1541 1541 1542
1534 1536 1538 1540 1541 1542 1544 1545 1546 1547 1547 1547 1547 1546 1545 1544 1543 1543 1542 1542 1542 1541 1541 1540 1540 1540 1540 1540 1540 1539 1539 1538 1537 1536 1536 1536 1535 1536 1536 1536 1537 1538 1538
1531 1532 1534 1536 1538 1540 1541 1542 1543 1544 1544 1544 1544 1543 1541 1541 1539 1539 1539 1539 1538 1538 1538 1538 1537 1537 1537 1537 1537 1536 1536 1535 1534 1533 1533 1532 1532 1532 1532 1533 1533 1534 1535
1527 1529 1531 1533 1535 1536 1538 1539 1540 1540 1541 1541 1541 1541 1540 1537 1536 1535 1535 1535 1535 1534 1534 1534 1534 1534 1534 1533 1533 1533 1532 1531 1531 1530 1529 1529 1528 1528 1528 1529 1529 1530 1531
1522 1524 1527 1529 1531 1533 1534 1535 1536 1536 1537 1537 1537 1537 1537 1536 1535 1532 1531 1531 1531 1531 1531 1530 1530 1530 1530 1530 1529 1529 1529 1528 1527 1527 1526 1526 1525 1525 1524 1525 1525 1525 1526
1518 1520 1523 1525 1527 1528 1530 1531 1532 1532 1532 1532 1532 1532 1532 1531 1531 1530 1527 1527 1527 1527 1526 1526 1526 1526 1525 1525 1525 1525 1525 1524 1524 1523 1522 1522 1521 1521 1521 1521 1520 1521 1521
1514 1516 1519 1521 1522 1524 1525 1526 1527 1527 1527 1527 1527 1527 1527 1527 1526 1525 1524 1522 1522 1522 1522 1521 1521 1521 1521 1521 1521 1521 1521 1520 1520 1520 1519 1518 1518 1517 1517 1516 1516 1516 1516
1510 1512 1514 1516 1518 1519 1520 1521 1522 1522 1523 1523 1523 1522 1522 1521 1521 1521 1520 1519 1518 1517 1517 1517 1517 1517 1517 1517 1517 1517 1517 1517 1516 1516 1515 1514 1514 1514 1513 1512 1512 1512 1512
1505 1508 1510 1512 1514 1515 1516 1517 1517 1517 1518 1518 1517 1517 1517 1516 1516 1516 1515 1515 1513 1513 1512 1512 1512 1513 1513 1513 1513 1513 1513 1513 1512 1512 1511 1511 1510 1510 1509 1509 1508 1508 1508
1501 1504 1506 1507 1509 1510 1511 1512 1512 1513 1513 1513 1512 1512 1512 1511 1511 1511 1510 1510 1511 1509 1508 1508 1508 1508 1509 1509 1509 1509 1509 1509 1509 1508 1508 1507 1507 1506 1506 1505 1505 1505 1505
1497 1499 1501 1503 1505 1506 1506 1507 1507 1508 1508 1508 1507 1507 1506 1506 1506 1506 1505 1505 1505 1506 1505 1504 1504 1505 1505 1506 1506 1506 1505 1506 1505 1505 1504 1504 1504 1503 1503 1502 1502 1502 1502
1493 1495 1497 1498 1500 1501 1501 1502 1502 1502 1502 1502 1502 1502 1501 1501 1501 1500 1500 1500 1501 1501 1500 1500 1500 1501 1501 1502 1502 1502 1502 1502 1502 1501 1501 1501 1501 1501 1500 1500 1500 1499 1500
1489 1491 1492 1494 1495 1496 1496 1497 1497 1497 1497 1497 1497 1496 1496 1496 1495 1495 1495 1496 1496 1496 1496 1496 1496 1497 1497 1498 1498 1499 1498 1499 1499 1499 1498 1498 1498 1498 1498 1498 1498 1498 1498
1484 1486 1488 1489 1490 1491 1491 1492 1492 1492 1492 1492 1491 1491 1491 1490 1490 1490 1490 1491 1491 1491 1492 1492 1492 1493 1493 1494 1494 1495 1495 1495 1495 1495 1495 1495 1496 1496 1496 1496 1496 1496 1496
1481 1482 1483 1485 1486 1487 1487 1487 1487 1487 1487 1486 1486 1486 1486 1486 1486 1486 1486 1486 1487 1487 1487 1488 1488 1489 1490 1490 1491 1491 1491 1492 1492 1492 1492 1493 1493 1493 1493 1493 1494 1494 1495
1477 1478 1480 1480 1481 1482 1482 1482 1482 1482 1481 1481 1481 1481 1481 1481 1481 1482 1482 1482 1483 1483 1484 1484 1485 1485 1486 1487 1487 1488 1488 1489 1489 1489 1489 1489 1490 1490 1490 1491 1491 1492 1493
1473 1474 1475 1476 1477 1477 1477 1477 1477 1477 1477 1476 1477 1477 1477 1477 1478 1478 1478 1479 1479 1480 1480 1480 1481 1482 1482 1483 1483 1484 1485 1485 1486 1487 1486 1487 1487 1488 1488 1489 1489 1490 1491
1469 1470 1471 1472 1472 1473 1473 1473 1472 1472 1472 1472 1473 1473 1474 1474 1474 1475 1475 1475 1476 1476 1477 1477 1478 1478 1479 1480 1480 1481 1481 1482 1483 1483 1484 1484 1485 1485 1486 1486 1487 1488 1489
1464 1466 1466 1467 1468 1468 1468 1468 1468 1468 1468 1469 1469 1470 1470 1471 1471 1472 1472 1472 1473 1473 1473 1474 1475 1475 1476 1477 1477 1478 1478 1479 1480 1481 1481 1482 1482 1483 1484 1484 1485 1485 1486
1460 1461 1462 1462 1463 1463 1464 1464 1464 1464 1464 1465 1466 1466 1467 1468 1468 1468 1469 1469 1470 1470 1470 1471 1472 1472 1473 1474 1475 1475 1476 1477 1477 1478 1479 1480 1480 1481 1482 1482 1483 1483 1484
1455 1456 1457 1458 1458 1459 1459 1459 1459 1460 1460 1461 1462 1463 1464 1464 1465 1465 1466 1466 1467 1468 1468 1468 1469 1470 1470 1471 1472 1473 1474 1475 1475 1476 1477 1478 1478 1479 1479 1480 1480 1481 1482